STARLINK-2061, 48312

Orbit data source: Space-Track

STARLINK-2061, 48312 is a payload satellite owned by SpaceX/Seattle (US) in LEO that was launched on Thu, 29 Apr 2021 UTC via an FALCON 9 launch vehicle from the Air Force Eastern Test Range (AFETR). Payload-class satellites include a variety of spacecraft equipped with specific instruments for various scientific and technological missions. These include communications satellites like Starlink; space stations such as the ISS; scientific satellites like the Hubble; Earth observation satellites from companies like Planet Labs, Umbra, and HawkEye 360; GPS; miniature CubeSats for education and research; and military/defense satellites.

Loading next visibility...
Identifier
48312, 2021-036AN
Orbit
LEO
Country
Flag of USUS
Related business
Manufacturer
SpaceX/Seattle
Mission
Operational Commercial Communications
Bus & Motor
STARLINK, Unknown motor
Mass
260 kg wet, ~248 kg dry
Launch date (UTC)
2021-04-29 (5 years ago)
Launch vehicle
FALCON 9
Launch site
Air Force Eastern Test Range (AFETR)
Object type
Payload
Rocket body
Debris
Shape & HBR
Box + 1 Pan, 10.1 m
Radar Cross Section
13.562 m², Large (>1 m²)

Expand to show TLE details & history
Last TLE update: 6 hours ago

TLE from 6 hours ago
0 STARLINK-2061
1 48312U 21036AN  26036.24240342  .00002485  00000-0  18560-3 0  9990
2 48312  53.0555 237.2778 0001520  94.8076 265.3086 15.06410654263284
Epoch: 2026-02-05T05:49Z
TLE epoch observation values (Epoch: 2026-02-05T05:49:03.655Z)
Latitude
-0.00007°
Longitude
14.61508°
Altitude
548.144 km
Speed
7.589 km/s
True Right ascension
15h 49m 06s
True Declination
0° 00' 00"
Sunlit
Object was in daylight at epoch
Visualization orbit readout
Latitude
Unknown
Longitude
Unknown
Altitude
Unknown
Speed
Unknown
Apparent Right ascension
Unknown
Apparent Declination
Unknown
Sunlit
N/A
Visualization observer readout
Local Sidereal Time
13:32:53
Azimuth
Unknown
Elevation
Unknown
Doppler factor
Unknown
Orbital elements
Apogee altitude
548.502 km
Perigee altitude
546.397 km
Semi-major axis
6,925.586 km
Eccentricity
0.00015
Inclination
53.0555°
RAAN
237.2778°
Arg. of periapsis
94.8076°
True anomaly
265.29124°
Mean anomaly
265.3086°
Eccentric anomaly
265.29992°
Mean motion
3.76581 °/min
Orbital period
95.6 mins
BSTAR
0.0001856
Loading maneuver chart data...
Computing Atmospheric mass density...
Loading historical data...
Loading historical data...
Loading historical data...
Loading historical data...
Loading historical data...
Loading historical data...
Loading historical data...

Documentation

Showing up to 5 results
|